Weather in Karasevo

Russia / Kurgan Oblast     55°03′07″N   62°22′22″E
temp.,
°C
wind,
m/s
gust,
m/s
humid.,
%
clouds,
%
prec.,
mm/h
press.,
hPa
HPBL,
m
8 may, sat
sat823:00+13s33395 0.0 101918
02:00+11ssw3344100 0.0 101930
05:00+11s114587 0.0 101910
08:00+14s2240100 0.0 1019173
11:00+17sse3331100 0.0 10181122
14:00+20s1224100 0.0 10172326
17:00+20ene1124100 0.0 10162427
20:00+17ne3435100 0.0 101667
9 may, sun
sun923:00+15ne3335100 0.0 101536
02:00+14nne2238100 0.0 101519
05:00+13n3442100 0.0 101680
08:00+15nne3542100 0.0 1016258
11:00+19nne453286 0.0 10151053
14:00+22ne5526100 0.0 10152790
17:00+22ne552655 0.0 10152549
20:00+18ne474496 0.0 1016154
10 may, mon
mon1023:00+15e365458 0.0 1018101
02:00+14nne1157100 0.0 101913
05:00+12nne37655 0.0 1020135
08:00+16ene46545 0.0 1021434
11:00+19ne56365 0.0 10221542
14:00+21ne67300 0.0 10211968
17:00+21ene56280 0.0 10221888
20:00+17ne35406 0.0 102377
11 may, tue
tue1123:00+13ese33425 0.0 102437
02:00+11s11417 0.0 102410
05:00+11sw2243100 0.0 102512
08:00+14sw3439100 0.0 1025211
11:00+19sw4431100 0.0 1024768
14:00+20nw3538100 0.0 10231835
17:00+18nw245519 0.0 1024625
20:00+16nnw59630 1.0 1023378
12 may, wed
wed1223:00+12n511745 1.0 1025309
02:00+9n41181100 0.0 1026344
05:00+7nnw4108873 0.0 1028226
08:00+12n610515 0.0 1028922
11:00+16n79355 0.0 10271509
14:00+18n683268 0.0 10271965
17:00+19n5735100 0.0 10262105
20:00+16n494698 0.0 1026381